BRX1247 EKCH-EKAH

Flight info

Callsign BRX1247
Flight time 0h 26m
Altitude 14000
Route GOLGA2C GOLGA T505 ASLID DCT
Aircraft AT76/M-SDFGIRY/S

Departure

Time 2026-05-05 08:37
Airport Copenhagen Kastrup Airport (EKCH)

Arrival

Time 2026-05-05 09:03
Airport Aarhus Airport (EKAH)
Time Latitude Longitude Altitude Speed Heading
2026-05-05 08:06 55.62739 12.64261 20 ft 0 kts 303°
2026-05-05 08:27 55.62728 12.64293 23 ft 4 kts 295°
2026-05-05 08:27 55.62716 12.64333 22 ft 4 kts 320°
2026-05-05 08:27 55.62701 12.64349 20 ft 4 kts 26°
2026-05-05 08:27 55.62689 12.64328 20 ft 3 kts 24°
2026-05-05 08:28 55.62670 12.64314 22 ft 2 kts 21°
2026-05-05 08:28 55.62648 12.64300 20 ft 4 kts 24°
2026-05-05 08:28 55.62632 12.64285 24 ft 3 kts 31°
2026-05-05 08:28 55.62616 12.64265 24 ft 3 kts 22°
2026-05-05 08:29 55.62597 12.64255 22 ft 4 kts 348°
2026-05-05 08:29 55.62580 12.64264 20 ft 4 kts 307°
2026-05-05 08:29 55.62566 12.64291 25 ft 4 kts 296°
2026-05-05 08:30 55.62558 12.64318 23 ft 0 kts 303°
2026-05-05 08:33 55.62567 12.64293 23 ft 4 kts 302°
2026-05-05 08:33 55.62570 12.64219 21 ft 9 kts 238°
2026-05-05 08:34 55.62504 12.64254 20 ft 16 kts 123°
2026-05-05 08:34 55.62435 12.64425 20 ft 18 kts 136°
2026-05-05 08:34 55.62316 12.64414 21 ft 19 kts 194°
2026-05-05 08:34 55.62187 12.64333 19 ft 18 kts 206°
2026-05-05 08:35 55.62071 12.64235 20 ft 19 kts 207°
2026-05-05 08:35 55.61949 12.64132 22 ft 20 kts 212°
2026-05-05 08:35 55.61830 12.64070 20 ft 17 kts 176°
2026-05-05 08:35 55.61712 12.64084 21 ft 17 kts 177°
2026-05-05 08:36 55.61612 12.64049 24 ft 14 kts 222°
2026-05-05 08:36 55.61473 12.63834 22 ft 55 kts 220°
2026-05-05 08:36 55.61031 12.63144 27 ft 113 kts 221°
2026-05-05 08:36 55.60321 12.62117 210 ft 141 kts 221°
2026-05-05 08:37 55.59536 12.60890 577 ft 158 kts 226°
2026-05-05 08:37 55.58701 12.59546 1147 ft 163 kts 223°
2026-05-05 08:37 55.57798 12.58192 1505 ft 181 kts 222°
2026-05-05 08:37 55.56844 12.56723 2145 ft 181 kts 223°
2026-05-05 08:38 55.56077 12.55023 2514 ft 179 kts 257°
2026-05-05 08:38 55.56171 12.52919 2956 ft 173 kts 289°
2026-05-05 08:38 55.56510 12.50817 3272 ft 179 kts 285°
2026-05-05 08:38 55.56820 12.48718 3782 ft 175 kts 283°
2026-05-05 08:39 55.57078 12.46623 4238 ft 174 kts 281°
2026-05-05 08:39 55.57284 12.44518 4696 ft 173 kts 278°
2026-05-05 08:39 55.57440 12.42410 5137 ft 173 kts 276°
2026-05-05 08:39 55.57568 12.40287 5564 ft 174 kts 275°
2026-05-05 08:40 55.57679 12.38164 5995 ft 173 kts 275°
2026-05-05 08:40 55.57781 12.36042 6411 ft 174 kts 274°
2026-05-05 08:40 55.57861 12.34642 6650 ft 172 kts 279°
2026-05-05 08:40 55.58548 12.32926 6971 ft 183 kts 327°
2026-05-05 08:41 55.59732 12.32028 7334 ft 186 kts 332°
2026-05-05 08:41 55.61306 12.30802 7828 ft 187 kts 328°
2026-05-05 08:41 55.62463 12.29742 8215 ft 187 kts 324°
2026-05-05 08:41 55.63567 12.28544 8588 ft 186 kts 320°
2026-05-05 08:42 55.64288 12.27666 8837 ft 186 kts 318°
2026-05-05 08:42 55.65325 12.26324 9214 ft 187 kts 316°
2026-05-05 08:42 55.66375 12.24944 9588 ft 188 kts 316°
2026-05-05 08:42 55.67433 12.23562 9950 ft 190 kts 316°
2026-05-05 08:43 55.68501 12.22174 10285 ft 190 kts 316°
2026-05-05 08:43 55.69572 12.20782 10627 ft 191 kts 316°
2026-05-05 08:43 55.70645 12.19390 10991 ft 190 kts 316°
2026-05-05 08:43 55.71716 12.18002 11326 ft 191 kts 316°
2026-05-05 08:44 55.72791 12.16605 11651 ft 192 kts 316°
2026-05-05 08:44 55.73873 12.15199 11990 ft 193 kts 316°
2026-05-05 08:44 55.74957 12.13785 12318 ft 194 kts 316°
2026-05-05 08:44 55.76049 12.12365 12638 ft 195 kts 316°
2026-05-05 08:45 55.77146 12.10931 12959 ft 196 kts 315°
2026-05-05 08:45 55.78249 12.09493 13287 ft 197 kts 315°
2026-05-05 08:45 55.79342 12.08063 13619 ft 198 kts 315°
2026-05-05 08:45 55.80458 12.06605 13845 ft 203 kts 315°
2026-05-05 08:46 55.81629 12.05067 13922 ft 216 kts 315°
2026-05-05 08:46 55.82870 12.03435 13940 ft 228 kts 316°
2026-05-05 08:46 55.84174 12.01722 13958 ft 238 kts 316°
2026-05-05 08:46 55.85528 11.99946 13964 ft 246 kts 316°
2026-05-05 08:47 55.86927 11.98112 13964 ft 252 kts 317°
2026-05-05 08:47 55.88355 11.96240 13970 ft 258 kts 317°
2026-05-05 08:47 55.89809 11.94327 13972 ft 262 kts 317°
2026-05-05 08:47 55.91280 11.92386 13973 ft 264 kts 317°
2026-05-05 08:48 55.92768 11.90426 13974 ft 267 kts 317°
2026-05-05 08:48 55.94267 11.88454 13972 ft 269 kts 317°
2026-05-05 08:48 55.95772 11.86463 13969 ft 270 kts 317°
2026-05-05 08:48 55.97281 11.84471 13975 ft 271 kts 317°
2026-05-05 08:49 55.98802 11.82459 13968 ft 272 kts 317°
2026-05-05 08:49 56.00324 11.80442 13966 ft 272 kts 317°
2026-05-05 08:49 56.01847 11.78429 13991 ft 273 kts 317°
2026-05-05 08:49 56.03375 11.76396 13980 ft 273 kts 317°
2026-05-05 08:50 56.04900 11.74373 13975 ft 273 kts 317°
2026-05-05 08:50 56.06421 11.72350 13972 ft 273 kts 317°
2026-05-05 08:50 56.07929 11.70345 13972 ft 273 kts 317°
2026-05-05 08:50 56.09450 11.68321 13972 ft 272 kts 317°
2026-05-05 08:51 56.10940 11.66349 13973 ft 255 kts 317°
2026-05-05 08:51 56.12310 11.64533 13969 ft 237 kts 316°
2026-05-05 08:51 56.13595 11.62813 13845 ft 227 kts 316°
2026-05-05 08:51 56.14847 11.61131 13605 ft 223 kts 316°
2026-05-05 08:52 56.16082 11.59473 13364 ft 220 kts 315°
2026-05-05 08:52 56.17313 11.57815 12846 ft 229 kts 316°
2026-05-05 08:52 56.18630 11.56003 12059 ft 245 kts 316°
2026-05-05 08:52 56.20008 11.54090 11304 ft 255 kts 316°
2026-05-05 08:53 56.21391 11.52225 10552 ft 242 kts 317°
2026-05-05 08:53 56.22712 11.50449 9818 ft 233 kts 317°
2026-05-05 08:53 56.23985 11.48725 9086 ft 224 kts 318°
2026-05-05 08:53 56.25198 11.47088 8498 ft 213 kts 319°
2026-05-05 08:54 56.26344 11.45539 7934 ft 206 kts 319°
2026-05-05 08:54 56.27488 11.43993 7373 ft 200 kts 321°
2026-05-05 08:54 56.28566 11.42530 6877 ft 193 kts 320°
2026-05-05 08:54 56.29321 11.40570 6566 ft 196 kts 281°
2026-05-05 08:55 56.29133 11.38163 6378 ft 197 kts 253°
2026-05-05 08:55 56.28692 11.35809 6164 ft 199 kts 255°
2026-05-05 08:55 56.28326 11.33396 5948 ft 200 kts 259°
2026-05-05 08:55 56.28077 11.30886 5742 ft 209 kts 265°
2026-05-05 08:56 56.27950 11.28208 5492 ft 220 kts 269°
2026-05-05 08:56 56.27918 11.25393 5210 ft 230 kts 271°
2026-05-05 08:56 56.27895 11.22471 4928 ft 237 kts 271°
2026-05-05 08:56 56.27864 11.19519 4646 ft 241 kts 271°
2026-05-05 08:57 56.27832 11.16473 4354 ft 245 kts 271°
2026-05-05 08:57 56.27796 11.13407 4062 ft 248 kts 271°
2026-05-05 08:57 56.27755 11.10297 3778 ft 249 kts 271°
2026-05-05 08:57 56.27712 11.07166 3496 ft 250 kts 271°
2026-05-05 08:58 56.27668 11.04025 3203 ft 251 kts 271°
2026-05-05 08:58 56.27612 11.00883 2917 ft 252 kts 270°
2026-05-05 08:58 56.27552 10.97747 2685 ft 250 kts 270°
2026-05-05 08:58 56.27519 10.94701 2498 ft 234 kts 274°
2026-05-05 08:59 56.27604 10.91858 2273 ft 222 kts 276°
2026-05-05 08:59 56.27729 10.89150 2105 ft 210 kts 277°
2026-05-05 08:59 56.27864 10.86641 2043 ft 201 kts 278°
2026-05-05 08:59 56.28049 10.84169 2011 ft 190 kts 283°
2026-05-05 09:00 56.28302 10.81897 1944 ft 180 kts 283°
2026-05-05 09:00 56.28525 10.79803 1727 ft 161 kts 283°
2026-05-05 09:00 56.28727 10.77898 1522 ft 152 kts 283°
2026-05-05 09:00 56.28916 10.76051 1352 ft 150 kts 283°
2026-05-05 09:01 56.29090 10.74278 1169 ft 139 kts 281°
2026-05-05 09:01 56.29234 10.72675 976 ft 120 kts 283°
2026-05-05 09:01 56.29372 10.71284 828 ft 109 kts 283°
2026-05-05 09:01 56.29498 10.69956 698 ft 107 kts 285°
2026-05-05 09:02 56.29645 10.68645 582 ft 108 kts 284°
2026-05-05 09:02 56.29772 10.67284 474 ft 111 kts 285°
2026-05-05 09:02 56.29931 10.65892 369 ft 114 kts 284°
2026-05-05 09:02 56.30075 10.64453 171 ft 118 kts 282°
2026-05-05 09:03 56.30221 10.63035 86 ft 110 kts 282°
2026-05-05 09:03 56.30344 10.61849 88 ft 86 kts 279°
2026-05-05 09:03 56.30428 10.61009 84 ft 43 kts 279°
2026-05-05 09:03 56.30503 10.60694 84 ft 18 kts
2026-05-05 09:04 56.30610 10.60725 83 ft 14 kts
2026-05-05 09:04 56.30644 10.60828 83 ft 17 kts 102°
2026-05-05 09:04 56.30603 10.61195 88 ft 32 kts 100°
2026-05-05 09:04 56.30569 10.61545 88 ft 26 kts 101°
2026-05-05 09:05 56.30528 10.61935 87 ft 25 kts 100°
2026-05-05 09:05 56.30516 10.62205 84 ft 17 kts 56°
2026-05-05 09:05 56.30591 10.62323 86 ft 12 kts 39°
2026-05-05 09:05 56.30652 10.62414 86 ft 9 kts 40°
2026-05-05 09:06 56.30669 10.62546 85 ft 15 kts 101°
2026-05-05 09:06 56.30666 10.62676 88 ft 3 kts 36°
2026-05-05 09:06 56.30689 10.62687 85 ft 6 kts 12°
2026-05-05 09:06 56.30717 10.62695 85 ft 0 kts 10°